Location: downtown San Diego
(32.7310°N, 117.1990°W)
Time: 18:18:02
(UTC-07:00)

SJ-11-01 - Pass Details

Date: 19 May 2017
Orbit: 685 x 701 km, 98.1° (Epoch: 23 September)

Event Time Altitude Azimuth Distance (km) Brightness Sun altitude
Exits shadow 20:51:05 16° 151° (SSE) 1,758 5.8 -13.1°
Maximum altitude 20:54:43 60° 75° (ENE) 787 4.4 -13.8°
Drops below altitude 10° 20:59:20 10° 356° (N) 2,142 7.4 -14.5°
Sets 21:01:36 0° 353° (N) 3,064 8.3 -14.9°
